Location: Newark
(46.7000°N, 60.6000°W)
Time: 11:24:35
(UTC+00:00)

A-11 Canister half - Pass Details

Date: 03 November 2020
Orbit: 1516 x 1684 km, 47.2° (Epoch: 04 December)

Event Time Altitude Azimuth Distance (km) Brightness Sun altitude
Rises 22:12:18 0° 223° (SW) 4,920 12.4 -15.6°
Reaches altitude 10° 22:15:33 10° 218° (SW) 3,939 11.8 -16.2°
Maximum altitude 22:25:16 54° 146° (SE) 1,983 9.4 -17.8°
Enters shadow 22:31:09 26° 82° (E) 2,863 9.8 -18.8°
